Location: Rockford
(40.2514°N, 96.6004°W)
Time: 23:54:57
(UTC+00:00)

N. Korean satellite - Visible Passes

Search period start: 18 October 2019 00:00
Search period end: 28 October 2019 00:00
Orbit: 455 x 508 km, 97.2° (Epoch: 18 October)

Date Brightness Start Highest point End Pass type
(mag) Time Alt. Az. Time Alt. Az. Time Alt. Az.
18 Oct 10.1 00:33:27 10° SW 00:35:26 15° W 00:37:26 10° WNW visible
18 Oct 8.2 11:58:30 10° NNE 12:01:56 40° E 12:05:22 10° S visible
19 Oct 8.8 00:06:56 10° SSW 00:10:00 30° W 00:13:05 10° NNW visible
19 Oct 9.7 11:33:51 10° NE 11:36:32 19° E 11:39:13 10° SE visible
21 Oct 7.0 12:15:49 10° NNE 12:19:26 71° E 12:23:06 10° S visible
22 Oct 9.8 00:25:06 10° SW 00:27:33 18° W 00:30:01 10° NW visible
22 Oct 8.7 11:50:48 10° NNE 11:54:06 32° E 11:57:25 10° SSE visible
22 Oct 8.2 23:58:54 10° S 00:02:07 39° W 00:05:24 10° NNW visible
23 Oct 10.0 11:26:21 10° NE 11:28:40 16° E 11:30:59 10° SE visible
25 Oct 10.4 00:44:09 10° WSW 00:45:08 11° W 00:46:06 10° WNW visible
25 Oct 7.5 12:07:59 10° NNE 12:11:36 56° E 12:15:14 10° S visible
26 Oct 9.4 00:16:51 10° SSW 00:19:38 23° W 00:22:27 10° NW visible
26 Oct 9.2 11:43:06 10° NE 11:46:13 26° E 11:49:22 10° SSE visible
27 Oct 10.3 11:18:59 10° ENE 11:20:46 13° E 11:22:32 10° ESE visible
